WMT769 LIPZ-EPWA

Flight info

Callsign WMT769
Flight time 1h 47m
Altitude 18000
Route ROSKA M859 BARPI/N0433F350 DCT LAPNA DCT GOLVA DCT LEDVA DCT NETIR DCT ORTEB/N0433F360 DCT KONZI DCT LOGDA
Aircraft A21N/M-SDE1E2E3FGIJ1J4RWXY/LB1

Departure

Time 2026-05-05 12:39
Airport Venice Marco Polo Airport (LIPZ)

Arrival

Time 2026-05-05 14:27
Airport Warsaw Chopin Airport (EPWA)
Time Latitude Longitude Altitude Speed Heading
2026-05-05 11:37 45.50144 12.34035 12 ft 0 kts 312°
2026-05-05 12:30 45.50139 12.34043 12 ft 2 kts 312°
2026-05-05 12:30 45.50129 12.34059 12 ft 2 kts 312°
2026-05-05 12:30 45.50123 12.34069 12 ft 2 kts 310°
2026-05-05 12:30 45.50117 12.34084 12 ft 2 kts 285°
2026-05-05 12:31 45.50115 12.34103 12 ft 2 kts 268°
2026-05-05 12:31 45.50117 12.34121 12 ft 2 kts 249°
2026-05-05 12:31 45.50124 12.34138 12 ft 2 kts 228°
2026-05-05 12:31 45.50129 12.34145 12 ft 1 kts 218°
2026-05-05 12:32 45.50131 12.34148 12 ft 0 kts 221°
2026-05-05 12:34 45.50131 12.34147 12 ft 0 kts 221°
2026-05-05 12:34 45.50112 12.34124 12 ft 7 kts 221°
2026-05-05 12:35 45.50067 12.34067 12 ft 11 kts 221°
2026-05-05 12:35 45.50013 12.33998 12 ft 13 kts 225°
2026-05-05 12:35 45.49935 12.33896 9 ft 17 kts 221°
2026-05-05 12:35 45.49840 12.33776 9 ft 19 kts 221°
2026-05-05 12:36 45.49736 12.33655 9 ft 20 kts 209°
2026-05-05 12:36 45.49652 12.33573 7 ft 20 kts 219°
2026-05-05 12:36 45.49569 12.33530 6 ft 14 kts 169°
2026-05-05 12:36 45.49513 12.33595 6 ft 13 kts 123°
2026-05-05 12:37 45.49468 12.33677 8 ft 13 kts 126°
2026-05-05 12:37 45.49453 12.33778 9 ft 14 kts 82°
2026-05-05 12:37 45.49482 12.33866 9 ft 10 kts 30°
2026-05-05 12:37 45.49514 12.33903 9 ft 5 kts 43°
2026-05-05 12:38 45.49566 12.33972 9 ft 25 kts 43°
2026-05-05 12:38 45.49749 12.34207 9 ft 74 kts 41°
2026-05-05 12:38 45.50136 12.34701 9 ft 124 kts 41°
2026-05-05 12:38 45.50700 12.35426 21 ft 165 kts 44°
2026-05-05 12:39 45.51361 12.36301 438 ft 167 kts 46°
2026-05-05 12:39 45.51986 12.37178 976 ft 165 kts 47°
2026-05-05 12:39 45.52618 12.38077 1470 ft 168 kts 47°
2026-05-05 12:39 45.53262 12.39003 1882 ft 169 kts 53°
2026-05-05 12:40 45.53682 12.40249 2078 ft 175 kts 84°
2026-05-05 12:40 45.53614 12.42022 2356 ft 185 kts 101°
2026-05-05 12:40 45.53419 12.43632 2604 ft 198 kts 102°
2026-05-05 12:40 45.53220 12.45242 2917 ft 206 kts 101°
2026-05-05 12:41 45.53016 12.46991 3256 ft 216 kts 101°
2026-05-05 12:41 45.52821 12.48749 3524 ft 231 kts 100°
2026-05-05 12:41 45.52608 12.50746 3924 ft 241 kts 99°
2026-05-05 12:41 45.52352 12.53131 4611 ft 244 kts 103°
2026-05-05 12:42 45.51703 12.55325 5261 ft 245 kts 127°
2026-05-05 12:42 45.50577 12.57202 5689 ft 260 kts 134°
2026-05-05 12:42 45.49292 12.59098 6201 ft 271 kts 135°
2026-05-05 12:42 45.48008 12.60985 6934 ft 274 kts 134°
2026-05-05 12:43 45.46724 12.62900 7677 ft 277 kts 134°
2026-05-05 12:43 45.45629 12.64551 8276 ft 280 kts 134°
2026-05-05 12:43 45.44352 12.66494 8952 ft 283 kts 134°
2026-05-05 12:43 45.43017 12.68537 9630 ft 287 kts 134°
2026-05-05 12:44 45.41672 12.70593 10279 ft 290 kts 134°
2026-05-05 12:44 45.40480 12.72410 10632 ft 301 kts 134°
2026-05-05 12:44 45.39123 12.74474 10905 ft 316 kts 134°
2026-05-05 12:44 45.37606 12.76778 11376 ft 325 kts 134°
2026-05-05 12:45 45.36042 12.79151 12031 ft 328 kts 134°
2026-05-05 12:45 45.34507 12.81484 12635 ft 331 kts 133°
2026-05-05 12:45 45.33204 12.84167 13148 ft 338 kts 113°
2026-05-05 12:45 45.32733 12.87449 13681 ft 342 kts 88°
2026-05-05 12:46 45.33232 12.90727 14202 ft 345 kts 64°
2026-05-05 12:46 45.34399 12.93703 14756 ft 347 kts 57°
2026-05-05 12:46 45.35674 12.96630 15251 ft 352 kts 57°
2026-05-05 12:46 45.36948 12.99560 15748 ft 356 kts 57°
2026-05-05 12:47 45.38226 13.02551 16263 ft 359 kts 57°
2026-05-05 12:47 45.39499 13.05576 16771 ft 362 kts 57°
2026-05-05 12:47 45.40785 13.08660 17276 ft 364 kts 56°
2026-05-05 12:47 45.42078 13.11776 17778 ft 367 kts 56°
2026-05-05 12:48 45.43377 13.14916 18279 ft 369 kts 56°
2026-05-05 12:48 45.44671 13.18053 18776 ft 370 kts 55°
2026-05-05 12:48 45.45967 13.21198 19270 ft 372 kts 54°
2026-05-05 12:48 45.47276 13.24374 19742 ft 373 kts 54°
2026-05-05 12:49 45.48583 13.27543 20175 ft 376 kts 54°
2026-05-05 12:49 45.49891 13.30732 20598 ft 378 kts 54°
2026-05-05 12:49 45.51208 13.33966 21019 ft 381 kts 54°
2026-05-05 12:49 45.52520 13.37194 21427 ft 383 kts 53°
2026-05-05 12:50 45.53871 13.40519 21838 ft 385 kts 53°
2026-05-05 12:50 45.55200 13.43801 22234 ft 387 kts 53°
2026-05-05 12:50 45.56546 13.47154 22629 ft 390 kts 53°
2026-05-05 12:50 45.57875 13.50465 23011 ft 391 kts 52°
2026-05-05 12:51 45.59328 13.53759 23394 ft 390 kts 48°
2026-05-05 12:51 45.60868 13.56938 23773 ft 391 kts 47°
2026-05-05 12:51 45.62408 13.60062 24138 ft 392 kts 47°
2026-05-05 12:51 45.63975 13.63238 24505 ft 394 kts 47°
2026-05-05 12:52 45.65539 13.66417 24858 ft 396 kts 47°
2026-05-05 12:52 45.67073 13.69553 25180 ft 398 kts 47°
2026-05-05 12:52 45.68649 13.72785 25512 ft 399 kts 47°
2026-05-05 12:52 45.70230 13.76027 25843 ft 401 kts 47°
2026-05-05 12:53 45.71841 13.79334 26173 ft 402 kts 47°
2026-05-05 12:53 45.73421 13.82577 26485 ft 404 kts 46°
2026-05-05 12:53 45.75030 13.85881 26796 ft 405 kts 46°
2026-05-05 12:53 45.76598 13.89106 27100 ft 406 kts 46°
2026-05-05 12:54 45.79821 13.95744 27683 ft 409 kts 46°
2026-05-05 12:54 45.81443 13.99090 27964 ft 410 kts 46°
2026-05-05 12:54 45.83053 14.02414 28244 ft 411 kts 46°
2026-05-05 12:55 45.84681 14.05780 28517 ft 413 kts 46°
2026-05-05 12:55 45.86250 14.09027 28772 ft 414 kts 46°
2026-05-05 12:55 45.87873 14.12391 29032 ft 415 kts 45°
2026-05-05 12:55 45.89509 14.15786 29290 ft 416 kts 45°
2026-05-05 12:56 45.91146 14.19188 29548 ft 417 kts 45°
2026-05-05 12:56 45.92768 14.22562 29795 ft 418 kts 45°
2026-05-05 12:56 45.94415 14.25991 30039 ft 419 kts 45°
2026-05-05 12:56 45.96059 14.29420 30284 ft 420 kts 45°
2026-05-05 12:57 45.97718 14.32884 30520 ft 421 kts 45°
2026-05-05 12:57 45.99358 14.36311 30747 ft 421 kts 45°
2026-05-05 12:57 46.00995 14.39737 31001 ft 421 kts 45°
2026-05-05 12:57 46.02607 14.43118 31300 ft 420 kts 45°
2026-05-05 12:58 46.04230 14.46529 31599 ft 419 kts 44°
2026-05-05 12:58 46.05850 14.49933 31878 ft 418 kts 44°
2026-05-05 12:58 46.07479 14.53359 32145 ft 417 kts 44°
2026-05-05 12:58 46.09100 14.56772 32423 ft 416 kts 44°
2026-05-05 12:59 46.10696 14.60133 32701 ft 415 kts 44°
2026-05-05 12:59 46.12209 14.63306 32990 ft 414 kts 44°
2026-05-05 12:59 46.13769 14.66580 33273 ft 413 kts 44°
2026-05-05 13:00 46.16907 14.73226 33734 ft 414 kts 44°
2026-05-05 13:00 46.18516 14.76639 33961 ft 414 kts 44°
2026-05-05 13:01 46.23334 14.86884 34602 ft 417 kts 44°
2026-05-05 13:01 46.24969 14.90367 34816 ft 417 kts 44°
2026-05-05 13:01 46.26577 14.93802 34995 ft 418 kts 44°
2026-05-05 13:01 46.28213 14.97298 35015 ft 418 kts 44°
2026-05-05 13:02 46.31417 15.04164 35017 ft 417 kts 44°
2026-05-05 13:02 46.34635 15.11073 35009 ft 416 kts 44°
2026-05-05 13:03 46.37858 15.18007 34993 ft 414 kts 43°
2026-05-05 13:03 46.41038 15.24865 34981 ft 415 kts 44°
2026-05-05 13:04 46.44262 15.31841 34970 ft 415 kts 44°
2026-05-05 13:04 46.47444 15.38743 34966 ft 415 kts 44°
2026-05-05 13:05 46.50800 15.45351 34965 ft 404 kts 37°
2026-05-05 13:05 46.54664 15.51053 34965 ft 393 kts 30°
2026-05-05 13:06 46.58940 15.55784 34965 ft 382 kts 22°
2026-05-05 13:06 46.63502 15.59586 34964 ft 377 kts 18°
2026-05-05 13:07 46.68121 15.63107 34963 ft 375 kts 17°
2026-05-05 13:07 46.72526 15.66029 34963 ft 371 kts 14°
2026-05-05 13:08 46.76276 15.68065 34968 ft 381 kts 21°
2026-05-05 13:08 46.78729 15.69497 35219 ft 381 kts 14°
2026-05-05 13:09 46.80787 15.70687 35010 ft 370 kts 13°
2026-05-05 13:09 46.83148 15.71973 34969 ft 368 kts 12°
2026-05-05 13:09 46.87954 15.74550 34927 ft 370 kts 12°
2026-05-05 13:10 46.92747 15.77146 34903 ft 371 kts 12°
2026-05-05 13:10 46.97574 15.79775 34892 ft 372 kts 11°
2026-05-05 13:11 47.02328 15.82370 34887 ft 373 kts 11°
2026-05-05 13:11 47.07204 15.85033 34885 ft 374 kts 10°
2026-05-05 13:12 47.11933 15.87619 34886 ft 374 kts 10°
2026-05-05 13:12 47.16531 15.90136 34885 ft 374 kts 10°
2026-05-05 13:13 47.21343 15.92778 34885 ft 374 kts 10°
2026-05-05 13:13 47.26192 15.95450 34885 ft 374 kts 10°
2026-05-05 13:14 47.31022 15.98117 34885 ft 374 kts 10°
2026-05-05 13:14 47.35857 16.00792 34885 ft 374 kts 10°
2026-05-05 13:15 47.40706 16.03482 34881 ft 374 kts 10°
2026-05-05 13:15 47.45523 16.06159 34868 ft 374 kts 10°
2026-05-05 13:16 47.50375 16.08861 34848 ft 374 kts 10°
2026-05-05 13:16 47.55238 16.11573 34824 ft 374 kts 10°
2026-05-05 13:17 47.60038 16.14257 34811 ft 375 kts 10°
2026-05-05 13:17 47.64893 16.16977 34804 ft 375 kts 10°
2026-05-05 13:18 47.69735 16.19695 34802 ft 374 kts 10°
2026-05-05 13:18 47.74605 16.22434 34801 ft 374 kts 10°
2026-05-05 13:19 47.79463 16.25172 34801 ft 375 kts 10°
2026-05-05 13:19 47.84319 16.27914 34801 ft 375 kts 10°
2026-05-05 13:20 47.89116 16.30629 34801 ft 375 kts 10°
2026-05-05 13:20 47.93946 16.33367 34802 ft 375 kts 10°
2026-05-05 13:21 47.98665 16.36048 34801 ft 374 kts 10°
2026-05-05 13:21 48.03327 16.38702 34801 ft 375 kts 10°
2026-05-05 13:22 48.08076 16.41411 34801 ft 374 kts 10°
2026-05-05 13:22 48.12649 16.44021 34802 ft 374 kts 10°
2026-05-05 13:23 48.16694 16.46331 34801 ft 374 kts 10°
2026-05-05 13:23 48.21497 16.49082 34801 ft 375 kts 10°
2026-05-05 13:24 48.26327 16.51857 34801 ft 375 kts 10°
2026-05-05 13:24 48.31198 16.54661 34801 ft 375 kts 10°
2026-05-05 13:25 48.36019 16.57443 34802 ft 375 kts 10°
2026-05-05 13:25 48.40870 16.60249 34801 ft 375 kts 10°
2026-05-05 13:26 48.45725 16.63063 34801 ft 375 kts 10°
2026-05-05 13:26 48.50429 16.65802 34799 ft 375 kts 11°
2026-05-05 13:27 48.54645 16.68277 34802 ft 376 kts 11°
2026-05-05 13:27 48.59465 16.71099 34806 ft 376 kts 11°
2026-05-05 13:28 48.64308 16.73942 34810 ft 377 kts 12°
2026-05-05 13:28 48.69016 16.77506 34817 ft 388 kts 19°
2026-05-05 13:29 48.73416 16.82163 34822 ft 401 kts 27°
2026-05-05 13:29 48.77506 16.88061 34823 ft 417 kts 36°
2026-05-05 13:30 48.81156 16.94846 34825 ft 417 kts 40°
2026-05-05 13:30 48.84685 17.01666 34826 ft 418 kts 42°
2026-05-05 13:31 48.88277 17.08634 34829 ft 420 kts 42°
2026-05-05 13:31 48.91857 17.15611 34827 ft 420 kts 42°
2026-05-05 13:32 48.95433 17.22582 34829 ft 420 kts 42°
2026-05-05 13:32 48.98996 17.29533 34825 ft 420 kts 42°
2026-05-05 13:33 49.02554 17.36490 34826 ft 422 kts 43°
2026-05-05 13:33 49.06115 17.43471 34825 ft 423 kts 43°
2026-05-05 13:34 49.09728 17.50575 34826 ft 424 kts 44°
2026-05-05 13:34 49.12806 17.56615 34828 ft 425 kts 44°
2026-05-05 13:35 49.16398 17.63683 34829 ft 425 kts 44°
2026-05-05 13:35 49.19432 17.69702 34827 ft 425 kts 45°
2026-05-05 13:36 49.23007 17.76829 34827 ft 424 kts 45°
2026-05-05 13:36 49.26544 17.83884 34829 ft 425 kts 45°
2026-05-05 13:37 49.30082 17.90954 34828 ft 424 kts 45°
2026-05-05 13:37 49.33625 17.98048 34828 ft 424 kts 45°
2026-05-05 13:38 49.37125 18.05075 34830 ft 425 kts 45°
2026-05-05 13:38 49.40636 18.12142 34832 ft 425 kts 45°
2026-05-05 13:39 49.43990 18.18913 34832 ft 425 kts 45°
2026-05-05 13:39 49.47507 18.26030 34831 ft 425 kts 45°
2026-05-05 13:40 49.51033 18.33185 34833 ft 425 kts 45°
2026-05-05 13:40 49.54575 18.40391 34836 ft 425 kts 45°
2026-05-05 13:41 49.58087 18.47561 34838 ft 424 kts 45°
2026-05-05 13:41 49.61590 18.54732 34838 ft 424 kts 45°
2026-05-05 13:42 49.65025 18.61788 34842 ft 425 kts 45°
2026-05-05 13:42 49.67961 18.68635 34854 ft 429 kts 52°
2026-05-05 13:43 49.70475 18.76148 34866 ft 435 kts 58°
2026-05-05 13:43 49.72622 18.84698 34876 ft 439 kts 63°
2026-05-05 13:44 49.74607 18.93533 34880 ft 439 kts 63°
2026-05-05 13:44 49.76565 19.02239 34883 ft 438 kts 64°
2026-05-05 13:45 49.78480 19.10737 34878 ft 435 kts 65°
2026-05-05 13:45 49.80423 19.19390 34866 ft 433 kts 66°
2026-05-05 13:46 49.82175 19.27253 34857 ft 432 kts 66°
2026-05-05 13:46 49.83841 19.34761 34854 ft 432 kts 66°
2026-05-05 13:47 49.85775 19.43495 34852 ft 432 kts 66°
2026-05-05 13:47 49.87693 19.52180 34855 ft 432 kts 66°
2026-05-05 13:48 49.89610 19.60903 34854 ft 431 kts 66°
2026-05-05 13:48 49.91282 19.68538 34854 ft 431 kts 67°
2026-05-05 13:49 49.93060 19.76720 34854 ft 432 kts 66°
2026-05-05 13:49 49.94898 19.85192 34855 ft 432 kts 66°
2026-05-05 13:50 49.96780 19.93889 34853 ft 432 kts 66°
2026-05-05 13:50 49.98650 20.02569 34853 ft 432 kts 66°
2026-05-05 13:51 50.00441 20.10907 34853 ft 432 kts 66°
2026-05-05 13:51 50.02294 20.19579 34854 ft 432 kts 66°
2026-05-05 13:52 50.04130 20.28202 34855 ft 432 kts 66°
2026-05-05 13:52 50.05991 20.36985 34855 ft 432 kts 66°
2026-05-05 13:53 50.08357 20.45366 34854 ft 423 kts 51°
2026-05-05 13:53 50.11980 20.51780 34853 ft 421 kts 34°
2026-05-05 13:54 50.16759 20.56243 34854 ft 421 kts 17°
2026-05-05 13:54 50.22403 20.58297 34856 ft 422 kts
2026-05-05 13:55 50.28204 20.58902 34853 ft 421 kts
2026-05-05 13:55 50.34041 20.59455 34855 ft 421 kts
2026-05-05 13:56 50.39816 20.60033 34855 ft 422 kts
2026-05-05 13:56 50.45655 20.60635 34854 ft 422 kts
2026-05-05 13:57 50.51496 20.61240 34855 ft 422 kts
2026-05-05 13:57 50.57319 20.61839 34854 ft 422 kts
2026-05-05 13:58 50.63124 20.62433 34853 ft 422 kts
2026-05-05 13:58 50.68922 20.63033 34847 ft 422 kts
2026-05-05 13:59 50.77627 20.63947 34835 ft 422 kts
2026-05-05 14:00 50.86351 20.64866 34830 ft 422 kts
2026-05-05 14:00 50.91487 20.65426 34829 ft 423 kts
2026-05-05 14:01 50.97309 20.66067 34829 ft 424 kts
2026-05-05 14:01 51.02955 20.66676 34828 ft 425 kts
2026-05-05 14:02 51.08735 20.67295 34829 ft 424 kts
2026-05-05 14:02 51.13851 20.67843 34830 ft 424 kts
2026-05-05 14:03 51.19353 20.68434 34830 ft 424 kts
2026-05-05 14:03 51.24625 20.69000 34830 ft 424 kts
2026-05-05 14:04 51.30346 20.70467 34828 ft 426 kts 13°
2026-05-05 14:04 51.34895 20.72803 34830 ft 424 kts 15°
2026-05-05 14:05 51.36985 20.73938 34707 ft 426 kts 15°
2026-05-05 14:05 51.39246 20.75169 34102 ft 426 kts 15°
2026-05-05 14:05 51.41976 20.76653 33357 ft 417 kts 15°
2026-05-05 14:05 51.44639 20.78093 32614 ft 410 kts 15°
2026-05-05 14:06 51.47273 20.79511 31869 ft 403 kts 15°
2026-05-05 14:06 51.49824 20.81085 31104 ft 401 kts 26°
2026-05-05 14:06 51.51951 20.83924 30333 ft 406 kts 49°
2026-05-05 14:06 51.53237 20.87661 29620 ft 408 kts 69°
2026-05-05 14:07 51.53686 20.92118 28866 ft 409 kts 90°
2026-05-05 14:07 51.53174 20.96448 28128 ft 407 kts 112°
2026-05-05 14:07 51.52152 20.99485 27549 ft 402 kts 128°
2026-05-05 14:07 51.50981 21.01547 27075 ft 397 kts 142°
2026-05-05 14:08 51.49288 21.03369 26513 ft 390 kts 157°
2026-05-05 14:08 51.47323 21.04441 25927 ft 382 kts 173°
2026-05-05 14:08 51.45204 21.04646 25315 ft 372 kts 188°
2026-05-05 14:08 51.43268 21.04031 24738 ft 364 kts 200°
2026-05-05 14:09 51.41330 21.02981 24131 ft 360 kts 202°
2026-05-05 14:09 51.39737 21.02054 23619 ft 358 kts 203°
2026-05-05 14:09 51.37889 21.00676 22967 ft 351 kts 218°
2026-05-05 14:09 51.36458 20.98383 22323 ft 341 kts 238°
2026-05-05 14:10 51.35530 20.95205 21617 ft 334 kts 256°
2026-05-05 14:10 51.35249 20.92225 20999 ft 330 kts 270°
2026-05-05 14:10 51.35447 20.89268 20381 ft 327 kts 284°
2026-05-05 14:10 51.36117 20.86472 19757 ft 326 kts 298°
2026-05-05 14:11 51.37227 20.84042 19253 ft 323 kts 312°
2026-05-05 14:11 51.38777 20.82069 18764 ft 327 kts 328°
2026-05-05 14:11 51.40895 20.80761 18210 ft 331 kts 346°
2026-05-05 14:11 51.43158 20.80595 17662 ft 334 kts
2026-05-05 14:12 51.45333 20.81357 17142 ft 335 kts 12°
2026-05-05 14:12 51.47221 20.82207 16676 ft 334 kts 13°
2026-05-05 14:12 51.49030 20.83046 16227 ft 332 kts 13°
2026-05-05 14:12 51.50867 20.83892 15768 ft 330 kts 13°
2026-05-05 14:13 51.52626 20.84690 15328 ft 329 kts 13°
2026-05-05 14:13 51.54812 20.85670 14778 ft 327 kts 13°
2026-05-05 14:13 51.56611 20.86470 14324 ft 325 kts 13°
2026-05-05 14:13 51.58381 20.87253 13875 ft 324 kts 13°
2026-05-05 14:14 51.60531 20.88203 13327 ft 322 kts 13°
2026-05-05 14:14 51.62635 20.89131 12789 ft 321 kts 13°
2026-05-05 14:14 51.64702 20.90043 12257 ft 319 kts 14°
2026-05-05 14:14 51.66351 20.90772 11829 ft 316 kts 14°
2026-05-05 14:15 51.68002 20.91560 11388 ft 314 kts 20°
2026-05-05 14:15 51.69561 20.92896 10890 ft 312 kts 34°
2026-05-05 14:15 51.70957 20.94577 10367 ft 310 kts 38°
2026-05-05 14:15 51.72281 20.96295 9850 ft 307 kts 38°
2026-05-05 14:16 51.73653 20.98060 9311 ft 305 kts 38°
2026-05-05 14:16 51.75255 21.00057 8685 ft 302 kts 37°
2026-05-05 14:16 51.76870 21.02018 8055 ft 300 kts 36°
2026-05-05 14:16 51.78224 21.03633 7526 ft 298 kts 36°
2026-05-05 14:17 51.79578 21.05231 6995 ft 296 kts 36°
2026-05-05 14:17 51.80814 21.06689 6523 ft 293 kts 36°
2026-05-05 14:17 51.82165 21.08280 6085 ft 288 kts 35°
2026-05-05 14:17 51.83457 21.09802 5724 ft 285 kts 35°
2026-05-05 14:18 51.84846 21.11431 5337 ft 288 kts 36°
2026-05-05 14:18 51.86172 21.12989 4971 ft 290 kts 36°
2026-05-05 14:18 51.87513 21.14567 4602 ft 293 kts 35°
2026-05-05 14:18 51.88827 21.16113 4237 ft 286 kts 36°
2026-05-05 14:19 51.90183 21.17617 4010 ft 272 kts 26°
2026-05-05 14:19 51.91598 21.18241 3978 ft 251 kts 356°
2026-05-05 14:19 51.92983 21.17652 4000 ft 243 kts 331°
2026-05-05 14:19 51.94356 21.16401 3995 ft 243 kts 326°
2026-05-05 14:20 51.95522 21.15255 3994 ft 244 kts 327°
2026-05-05 14:20 51.96740 21.14094 3993 ft 243 kts 328°
2026-05-05 14:20 51.98198 21.12767 3983 ft 243 kts 329°
2026-05-05 14:20 51.99437 21.11674 3858 ft 243 kts 329°
2026-05-05 14:21 52.00573 21.10683 3644 ft 244 kts 329°
2026-05-05 14:21 52.01747 21.09661 3379 ft 240 kts 329°
2026-05-05 14:21 52.02898 21.08660 3127 ft 233 kts 329°
2026-05-05 14:21 52.03823 21.07853 2928 ft 228 kts 329°
2026-05-05 14:22 52.04920 21.06894 2710 ft 218 kts 329°
2026-05-05 14:22 52.06149 21.05820 2434 ft 207 kts 329°
2026-05-05 14:22 52.07237 21.04868 2193 ft 196 kts 329°
2026-05-05 14:22 52.08143 21.04077 1990 ft 184 kts 329°
2026-05-05 14:23 52.08899 21.03417 1833 ft 173 kts 329°
2026-05-05 14:23 52.09618 21.02789 1665 ft 165 kts 329°
2026-05-05 14:23 52.10263 21.02226 1514 ft 156 kts 329°
2026-05-05 14:23 52.10776 21.01783 1392 ft 150 kts 328°
2026-05-05 14:24 52.11271 21.01353 1283 ft 150 kts 329°
2026-05-05 14:24 52.11729 21.00952 1192 ft 151 kts 328°
2026-05-05 14:24 52.12323 21.00429 1087 ft 150 kts 328°
2026-05-05 14:24 52.12927 20.99895 948 ft 152 kts 328°
2026-05-05 14:25 52.13522 20.99369 814 ft 151 kts 329°
2026-05-05 14:25 52.14177 20.98799 659 ft 150 kts 329°
2026-05-05 14:25 52.14746 20.98308 548 ft 150 kts 329°
2026-05-05 14:25 52.15311 20.97822 433 ft 148 kts 328°
2026-05-05 14:26 52.15795 20.97396 376 ft 146 kts 328°
2026-05-05 14:26 52.16229 20.97014 366 ft 130 kts 331°
2026-05-05 14:26 52.16671 20.96626 366 ft 99 kts 328°
2026-05-05 14:26 52.17016 20.96324 366 ft 65 kts 332°
2026-05-05 14:27 52.17219 20.96152 366 ft 32 kts 335°
2026-05-05 14:27 52.17347 20.96082 366 ft 24 kts 350°
2026-05-05 14:27 52.17459 20.96070 366 ft 23 kts 360°
2026-05-05 14:27 52.17546 20.96076 366 ft 19 kts 14°
2026-05-05 14:28 52.17619 20.96126 366 ft 18 kts 19°
2026-05-05 14:28 52.17697 20.96128 366 ft 17 kts 341°
2026-05-05 14:28 52.17760 20.96085 366 ft 13 kts 350°
2026-05-05 14:28 52.17793 20.96116 366 ft 4 kts 81°
2026-05-05 14:29 52.17797 20.96139 366 ft 3 kts 65°
2026-05-05 14:29 52.17810 20.96174 366 ft 7 kts 57°
2026-05-05 14:29 52.17832 20.96234 366 ft 9 kts 68°
2026-05-05 14:29 52.17825 20.96299 366 ft 9 kts 130°
2026-05-05 14:30 52.17792 20.96334 366 ft 10 kts 153°
2026-05-05 14:30 52.17754 20.96366 366 ft 5 kts 152°
2026-05-05 14:30 52.17728 20.96373 366 ft 3 kts 192°
2026-05-05 14:30 52.17714 20.96345 366 ft 4 kts 248°
2026-05-05 14:31 52.17701 20.96304 366 ft 4 kts 242°
2026-05-05 14:31 52.17690 20.96272 366 ft 0 kts 242°
2026-05-05 14:31 52.17688 20.96266 366 ft 0 kts 242°